User: anonymous   Login
Location: Unspecified
(0.0000°N, 0.0000°E)
Time: 13:26:09
(UTC+01:00)
Language:

GP-B - Orbit

View from above orbital plane
View from above orbital plane
View from above satellite
View from above satellite

Ground track
Ground track

The orbit data is extracted from the following two-line orbital elements,

1 28230U 04014A   15029.22803847  .00000710  00000-0  96407-4 0  2783
2 28230 089.8841 136.7974 0002877 093.6451 266.5100 14.77938679580570
Epoch (UTC): 29 January 2015 05:28:22
Eccentricity: 0.0002877
inclination: 89.8841°
perigee height: 634 km
apogee height: 638 km
right ascension of ascending node: 136.7974°
argument of perigee: 93.6451°
revolutions per day: 14.77938679
mean anomaly at epoch: 266.5100°
orbit number at epoch: 58057

The dashed part of the orbit path shows where the satellite is in the earth's shadow,  

DLR